GW1561 Weather Reports


time (UTC)temp
F
wind
direction
speed
knots
gust
knots
rain 1hr
in
rain 24hr
in
rain mn
in
humidity
%
barometer
mb
20260502195113 55 234 5.2 6.1 0.00 0.00 0.00 47 983.7
20260502194517 55 350 1.7 1.7 0.00 0.00 0.00 45 984.0
20260502193939 54 284 0.0 1.7 0.00 0.00 0.00 43 983.7
20260502193323 54 326 0.9 3.5 0.00 0.00 0.00 45 983.7
20260502192114 54 8 0.9 2.6 0.00 0.00 0.00 48 984.0
20260502190930 53 355 0.0 0.0 0.00 0.00 0.00 46 984.4
20260502190322 53 18 1.7 1.7 0.00 0.00 0.00 47 984.0
20260502185712 54 346 0.9 1.7 0.00 0.00 0.00 44 984.4
20260502185118 54 6 0.9 0.9 0.00 0.00 0.00 47 984.4
20260502184513 55 335 0.0 0.9 0.00 0.00 0.00 47 984.4
20260502183935 54 139 1.7 2.6 0.00 0.00 0.00 43 984.4
20260502183322 54 58 0.9 3.5 0.00 0.00 0.00 44 984.4
20260502182151 54 204 1.7 2.6 0.00 0.00 0.00 45 984.4
20260502181552 54 348 0.0 0.9 0.00 0.00 0.00 47 984.4
20260502180942 54 233 3.5 3.5 0.00 0.00 0.00 48 984.0
20260502180316 54 349 0.0 0.0 0.00 0.00 0.00 49 984.4
20260502163930 54 345 0.0 0.9 0.00 0.00 0.00 45 984.7
20260502163338 54 54 0.9 2.6 0.00 0.00 0.00 48 985.1
20260502162735 52 38 1.7 3.5 0.00 0.00 0.00 46 985.1
20260502162134 54 13 0.9 5.2 0.00 0.00 0.00 46 985.1
20260502161514 56 31 2.6 5.2 0.00 0.00 0.00 47 985.1
20260502152129 51 357 0.9 1.7 0.00 0.00 0.00 58 985.1
20260502151544 52 8 0.9 5.2 0.00 0.00 0.00 54 985.4
20260502150917 55 6 0.0 3.5 0.00 0.00 0.00 51 985.1
20260502150345 54 351 0.0 1.7 0.00 0.00 0.00 59 985.1
20260502130324 41 336 0.0 0.0 0.00 0.00 0.00 97 985.4
20260502123319 38 336 0.0 0.0 0.00 0.00 0.00 97 985.4
20260502122727 38 336 0.0 0.0 0.00 0.00 0.00 97 985.4
20260502122144 38 336 0.0 0.0 0.00 0.00 0.00 97 985.7
20260502121540 37 336 0.0 0.0 0.00 0.00 0.00 97 985.4
20260502120923 37 336 0.0 0.0 0.00 0.00 0.00 97 985.4
20260502115717 36 337 0.0 0.0 0.00 0.00 0.00 97 985.7
20260502114526 36 337 0.0 0.0 0.00 0.00 0.00 97 985.7
20260502113932 35 337 0.0 0.0 0.00 0.00 0.00 97 985.7
20260502113336 35 337 0.0 0.0 0.00 0.00 0.00 97 985.4
20260502112731 35 337 0.0 0.0 0.00 0.00 0.00 97 985.7
20260502111521 35 337 0.0 0.0 0.00 0.00 0.00 97 985.7
20260502110923 35 337 0.0 0.0 0.00 0.00 0.00 97 985.4
20260502105717 35 336 0.0 0.0 0.00 0.00 0.00 97 985.4
20260502105151 35 335 0.0 0.0 0.00 0.00 0.00 97 985.1
20260502104512 34 335 0.0 0.0 0.00 0.00 0.00 97 985.1
20260502103944 34 337 0.0 0.0 0.00 0.00 0.00 97 985.4
20260502103330 34 337 0.0 0.0 0.00 0.00 0.00 97 985.4
20260502102722 35 337 0.0 0.0 0.00 0.00 0.00 97 985.7
20260502102128 34 337 0.0 0.0 0.00 0.00 0.00 97 985.7
20260502100935 35 337 0.0 0.0 0.00 0.00 0.00 97 985.7
20260502100347 35 337 0.0 0.0 0.00 0.00 0.00 97 985.7
20260502090948 36 336 0.0 0.0 0.00 0.00 0.00 97 985.7
20260502090333 36 336 0.0 0.0 0.00 0.00 0.00 97 985.7
20260502071526 38 335 0.0 0.0 0.00 0.00 0.00 95 985.1
20260502070913 38 335 0.0 0.0 0.00 0.00 0.00 95 985.1
20260502070337 38 336 0.0 0.0 0.00 0.00 0.00 95 985.1
20260502065712 39 336 0.0 0.0 0.00 0.00 0.00 95 985.1
20260502065141 39 333 0.0 0.0 0.00 0.00 0.00 95 985.1
20260502063913 39 336 0.0 0.0 0.00 0.00 0.00 94 985.4
20260502063326 39 340 0.0 0.0 0.00 0.00 0.00 94 985.4
20260502062727 39 336 0.0 0.0 0.00 0.00 0.00 94 985.4
20260502062149 40 336 0.0 0.0 0.00 0.00 0.00 93 985.7
20260502061532 40 335 0.0 0.0 0.00 0.00 0.00 93 985.7
20260502060950 40 332 0.0 0.0 0.00 0.00 0.00 93 985.7
20260502060338 41 337 0.0 0.0 0.00 0.00 0.00 92 985.7
20260502055713 41 340 0.0 0.0 0.00 0.00 0.00 92 985.7
20260502055137 41 340 0.0 0.0 0.00 0.00 0.00 91 985.7
20260502054539 42 331 0.0 0.0 0.00 0.00 0.00 91 985.7
20260502053936 42 337 0.0 0.0 0.00 0.00 0.00 90 985.7
20260502053342 42 337 0.0 0.0 0.00 0.00 0.00 89 985.7
20260502052742 43 334 0.0 0.0 0.00 0.00 0.00 89 985.7
20260502052136 43 336 0.0 0.0 0.00 0.00 0.00 87 985.7
20260502051537 44 344 0.0 0.0 0.00 0.00 0.00 86 985.7
20260502050947 44 344 0.0 0.0 0.00 0.00 0.00 85 985.7
20260502045713 46 344 0.0 0.0 0.00 0.00 0.00 83 985.7
20260502045152 46 348 0.0 0.0 0.00 0.00 0.00 82 985.7
20260502043951 47 348 0.0 0.0 0.00 0.00 0.00 81 985.4
20260502042725 47 348 0.0 0.0 0.00 0.00 0.00 79 985.4
20260502042129 47 348 0.0 0.0 0.00 0.00 0.00 78 985.4
20260502041554 48 348 0.0 0.0 0.00 0.00 0.00 79 985.4
20260502040935 48 348 0.0 0.0 0.00 0.00 0.00 75 985.4
20260502040353 48 348 0.0 0.0 0.00 0.00 0.00 73 985.7
20260502035735 48 348 0.0 0.0 0.00 0.00 0.00 73 985.7
20260502033952 49 348 0.0 0.9 0.00 0.00 0.00 71 985.7
20260502033341 49 355 0.9 1.7 0.00 0.00 0.00 70 985.7
20260502032121 49 42 1.7 1.7 0.00 0.00 0.00 70 985.4
20260502031527 49 26 1.7 1.7 0.00 0.00 0.00 70 985.7
20260502030936 49 354 0.0 0.9 0.00 0.00 0.00 69 985.4
20260502030329 50 355 0.0 0.9 0.00 0.00 0.00 71 985.4
20260502025726 50 350 0.0 1.7 0.00 0.00 0.00 71 985.4
20260502025148 50 356 0.0 1.7 0.00 0.00 0.00 70 985.4
20260502024553 50 17 1.7 3.5 0.00 0.00 0.00 70 985.7
20260502023949 50 56 0.9 1.7 0.00 0.00 0.00 72 985.7
20260502023327 50 344 0.0 0.0 0.00 0.00 0.00 73 985.4
20260502022736 50 12 2.6 7.0 0.00 0.00 0.00 72 985.4
20260502022149 50 356 0.0 2.6 0.00 0.00 0.00 71 984.7
20260502021524 50 348 0.0 0.0 0.00 0.00 0.00 73 985.1
20260502020917 51 335 0.0 0.9 0.00 0.00 0.00 73 984.7
20260502020338 51 340 0.0 0.9 0.00 0.00 0.00 73 984.7
20260502015114 51 351 0.0 0.0 0.00 0.00 0.00 78 984.7
20260502014554 50 340 0.0 0.0 0.00 0.00 0.00 81 984.4
20260502013953 50 348 0.0 0.0 0.00 0.00 0.00 84 984.4
20260502013312 50 348 0.0 0.0 0.00 0.00 0.00 87 984.0
20260502012741 51 344 0.0 0.0 0.00 0.00 0.00 86 984.0
20260502012136 51 335 0.0 0.0 0.00 0.00 0.00 86 984.0
20260502011521 51 348 0.0 0.0 0.00 0.00 0.00 86 984.0
20260502010935 51 344 0.0 0.0 0.00 0.00 0.00 85 983.7
20260502010317 51 344 0.0 0.0 0.00 0.00 0.00 85 983.7
20260502005749 51 343 0.0 0.0 0.00 0.00 0.00 84 983.7
20260502005118 51 343 0.0 0.0 0.00 0.00 0.00 85 983.4
20260502004519 51 344 0.0 0.0 0.00 0.00 0.00 85 983.4
20260502003914 51 336 0.0 0.0 0.00 0.00 0.00 84 983.4
20260502003311 51 337 0.0 0.0 0.00 0.00 0.00 84 983.4
20260502002144 52 340 0.0 0.0 0.00 0.00 0.00 83 983.4
20260502001533 52 335 0.0 0.0 0.00 0.00 0.00 82 983.0
20260502000923 52 336 0.0 0.0 0.00 0.00 0.00 82 982.7
20260502000354 52 328 0.0 0.0 0.00 0.00 0.00 81 982.7
20260501235710 52 337 0.0 0.0 0.00 0.00 0.00 79 982.7
20260501235129 53 336 0.0 0.0 0.00 0.00 0.00 78 982.3
20260501234529 52 336 0.0 0.0 0.00 0.00 0.00 75 982.3
20260501233932 52 340 0.0 0.0 0.00 0.00 0.00 77 982.3
20260501233330 53 337 0.0 0.0 0.00 0.00 0.00 75 982.3
20260501232119 53 348 0.0 0.0 0.00 0.00 0.00 74
20260501231520 53 343 0.0 0.0 0.00 0.00 0.00 75 982.3
20260501230915 53 337 0.0 0.0 0.00 0.00 0.00 77 982.3
20260501230339 53 356 0.0 0.0 0.00 0.00 0.00 73
20260501225745 53 340 0.9 1.7 0.00 0.00 0.00 73
20260501224521 55 30 1.7 3.5 0.00 0.00 0.00 66
20260501223953 56 340 0.9 3.5 0.00 0.00 0.00 67
20260501223351 56 17 3.5 5.2 0.00 0.00 0.00 66
20260501222716 56 337 0.0 1.7 0.00 0.00 0.00 67
20260501222115 57 348 0.0 0.9 0.00 0.00 0.00 68
20260501221520 57 3 0.9 1.7 0.00 0.00 0.00 69
20260501220340 56 7 0.0 1.7 0.00 0.00 0.00 71
20260501215719 57 28 0.9 5.2 0.00 0.00 0.00 71
20260501215129 58 205 1.7 2.6 0.00 0.00 0.00 69
20260501214546 58 349 0.0 0.9 0.00 0.00 0.00 68
20260501213923 58 19 0.9 2.6 0.00 0.00 0.00 67
20260501213324 59 348 1.7 1.7 0.00 0.00 0.00 67
20260501212738 57 14 1.7 1.7 0.00 0.00 0.00 70
20260501212141 57 18 0.9 2.6 0.00 0.00 0.00 69
20260501210942 58 24 0.0 5.2 0.00 0.00 0.00 72
20260501210334 58 1 1.7 2.6 0.00 0.00 0.00 65
20260501205152 61 51 1.7 2.6 0.00 0.00 0.00 60
20260501204536 61 352 0.0 1.7 0.00 0.00 0.00 58
20260501203941 61 348 0.9 7.0 0.00 0.00 0.00 56
20260501203329 63 358 0.0 0.9 0.00 0.00 0.00 54
20260501202716 64 210 2.6 3.5 0.00 0.00 0.00 51
20260501202122 63 347 0.0 1.7 0.00 0.00 0.00 50
20260501201536 64 352 0.0 1.7 0.00 0.00 0.00 54
20260501200947 64 2 1.7 2.6 0.00 0.00 0.00 46
20260501200349 64 135 1.7 3.5 0.00 0.00 0.00 43
20260501195727 64 340 0.0 0.9 0.00 0.00 0.00 42